Theta_e
349 349 350 351 351 348 349 347 346 346 346 346 345 345 345 347 350 346 346 346 346 346 347 349 351 349 350 350 350 352 352 350 350 349 350 346 347 348 346 346 344 341 341
348 350 350 351 350 350 350 349 346 346 347 347 346 345 346 348 348 346 347 352 346 349 348 349 349 350 349 345 349 347 350 348 350 352 351 348 348 350 347 343 342 339 339
348 344 350 350 349 350 350 348 348 346 346 346 346 347 349 348 349 349 348 351 346 349 351 351 350 351 347 348 346 346 349 350 347 350 351 351 349 347 345 341 339 338 337
348 347 349 350 350 350 352 351 348 346 347 346 346 345 348 348 349 352 350 346 347 352 352 352 348 348 350 351 347 347 346 346 345 345 346 351 351 348 344 344 342 338 336
350 349 349 347 349 350 351 350 350 350 348 346 345 346 346 347 349 347 347 347 348 349 350 352 350 350 347 348 347 347 347 346 347 343 347 349 349 348 346 344 344 340 334
346 346 346 346 345 346 348 349 349 348 350 348 348 352 349 347 347 347 347 346 347 350 351 352 349 348 347 346 346 344 344 344 347 348 344 348 345 344 345 343 340 341 344
345 345 343 344 344 345 345 345 346 349 348 347 347 346 345 346 346 346 345 346 345 345 346 348 348 346 346 346 345 343 343 343 344 343 349 340 344 339 338 343 341 340 343
342 342 343 342 342 346 344 343 343 343 343 344 344 343 343 343 343 342 343 343 344 343 343 344 345 344 345 344 343 341 339 339 339 338 336 330 331 333 335 338 341 338 336
339 339 338 342 341 342 343 342 342 342 340 340 339 339 340 341 342 340 339 340 341 339 338 339 340 341 342 343 340 336 328 323 323 325 326 326 328 331 332 338 337 338 336
340 341 339 341 342 341 341 342 341 341 340 338 336 337 338 338 340 340 340 339 338 337 336 337 339 340 340 340 337 330 325 322 322 322 323 325 326 327 330 333 333 336 330
338 340 341 341 341 342 340 340 339 337 335 334 334 332 333 333 334 337 336 336 336 334 333 333 335 338 339 336 333 331 330 324 322 323 323 323 323 323 322 324 327 327 326
337 338 337 338 337 338 339 333 331 331 328 326 326 328 328 329 331 333 335 336 334 332 330 330 331 334 335 337 335 331 328 322 322 323 320 314 312 308 310 309 310 314 318
335 335 335 335 333 333 332 330 328 328 326 325 324 324 323 325 327 330 332 332 330 329 328 327 326 329 330 328 326 325 322 322 323 318 310 308 311 311 309 310 309 310 309
333 332 331 332 331 329 329 329 328 326 325 324 325 325 326 325 321 322 324 325 325 324 324 324 324 324 323 321 321 322 321 319 313 311 310 310 310 312 310 311 311 312 312
329 329 326 327 329 328 328 326 326 327 326 325 323 324 325 323 319 319 319 320 320 321 320 319 319 319 318 317 314 312 311 310 310 310 311 313 313 310 310 309 309 309 310
325 322 321 321 319 319 320 320 326 328 327 325 319 322 321 318 317 317 317 317 318 317 318 318 316 315 314 312 311 309 308 307 307 309 309 309 310 310 309 309 309 309 309
324 321 319 318 318 318 317 317 317 321 324 322 320 321 320 320 320 320 317 314 313 316 317 317 316 315 314 312 311 310 309 308 308 309 309 309 310 310 310 309 309 308 308
322 320 318 317 317 318 318 318 318 318 319 320 321 321 321 320 321 320 319 319 318 317 316 316 314 311 313 307 305 305 306 308 309 309 308 308 309 309 309 309 309 308 307
323 321 319 319 318 315 313 314 315 318 319 320 320 320 320 319 320 321 321 323 322 321 320 319 318 312 307 306 306 307 309 310 309 309 310 308 309 309 309 308 305 304 305
326 322 321 320 316 314 313 311 313 316 318 318 320 321 320 320 322 321 320 321 319 319 320 321 319 314 307 307 308 309 309 310 309 309 309 308 307 307 307 306 304 304 304
325 325 325 325 323 321 318 316 313 313 314 315 317 319 320 321 321 319 319 319 317 316 316 316 316 314 309 308 309 310 310 310 308 308 307 307 306 306 305 304 304 304 305
320 320 321 321 323 323 322 321 320 317 315 315 314 313 315 317 319 318 316 316 317 318 316 315 313 312 310 309 309 309 309 309 309 308 307 306 306 305 304 304 305 305 305
318 318 318 316 319 317 315 316 317 318 319 318 316 315 313 314 316 316 316 315 315 316 316 314 313 312 311 310 309 309 309 309 309 308 307 306 305 304 304 304 305 306 305
322 321 321 320 319 319 320 320 321 319 319 319 318 316 317 316 316 315 315 314 315 315 315 314 314 313 312 310 310 308 308 309 309 308 306 305 304 303 304 304 305 305 305
321 320 320 321 321 320 320 319 320 320 320 319 318 318 319 319 318 318 317 315 313 314 315 313 315 314 312 310 311 310 308 307 308 306 305 304 304 304 305 305 305 306 306
322 322 322 322 321 321 321 321 320 320 318 318 318 318 319 318 317 317 317 316 314 312 311 311 310 310 313 311 310 309 308 306 306 305 304 303 305 305 305 306 307 306 306
Wind_Speed
22 21 19 20 18 17 15 14 12 10 12 10 8 7 7 9 11 7 7 8 7 8 5 7 6 6 6 4 3 2 2 2 4 1 3 4 3 6 6 6 4 4 3
22 21 21 19 18 16 15 15 14 14 12 11 11 11 9 8 9 7 6 5 7 8 7 10 8 7 7 6 6 5 3 3 4 3 4 4 4 6 6 6 4 4 2
21 26 18 18 18 18 17 18 17 15 14 11 10 9 8 7 8 7 7 7 9 9 8 9 8 8 9 8 8 9 5 3 1 3 2 4 3 8 7 4 2 2 3
18 20 18 18 19 19 17 16 17 17 16 16 14 11 8 8 7 6 8 10 12 9 9 11 10 10 8 8 7 7 6 4 3 3 3 2 2 5 6 5 5 4 5
14 15 17 19 18 18 17 16 16 16 17 17 16 13 11 9 9 10 10 9 11 12 12 11 11 7 8 7 3 3 2 3 5 5 3 3 2 2 4 4 4 5 4
12 12 12 10 13 18 18 17 16 17 15 17 14 9 9 11 13 12 11 9 7 7 9 9 7 5 1 2 4 3 5 6 7 5 3 1 1 1 2 4 4 4 3
14 11 11 11 10 10 11 14 15 14 13 13 12 10 10 10 10 9 7 4 3 3 2 3 4 4 3 5 6 9 9 11 11 8 2 2 1 0 1 2 2 2 0
10 10 10 12 12 9 8 9 10 12 14 13 11 9 8 7 8 5 4 3 2 1 1 2 3 3 2 4 4 2 3 4 4 5 6 7 5 2 2 2 2 5 4
11 12 11 12 15 14 12 12 10 12 13 14 14 13 9 6 6 4 3 4 4 3 3 3 2 1 1 4 5 8 11 14 13 12 13 12 9 6 2 3 4 5 3
10 10 12 11 14 17 15 15 15 14 15 13 11 9 7 4 7 7 7 6 5 4 1 2 2 1 4 6 6 11 13 10 9 9 10 11 11 11 10 6 4 3 4
11 6 13 13 14 15 15 16 17 17 16 14 10 8 5 3 2 4 4 4 5 5 3 5 4 5 5 8 8 10 9 11 10 11 10 11 11 12 14 15 11 6 8
6 9 10 12 12 17 16 15 16 17 16 14 13 11 7 6 4 3 3 4 4 6 6 7 6 3 1 4 7 7 10 13 12 11 12 15 15 18 17 17 18 17 15
15 15 12 14 16 16 18 20 19 18 17 16 12 10 9 9 10 8 9 8 8 9 10 10 10 9 10 12 11 12 12 11 11 14 18 17 14 11 14 14 17 18 18
21 19 18 20 20 16 16 17 17 16 12 11 9 9 9 8 8 9 12 13 11 12 13 14 13 14 15 17 15 13 11 12 14 15 13 12 10 9 9 8 8 10 12
18 16 15 16 18 19 19 14 12 11 11 9 8 8 9 11 10 10 9 10 11 13 12 11 13 13 14 14 13 12 11 10 11 10 10 10 9 9 10 10 11 12 12
17 14 12 13 12 12 13 13 11 10 8 9 10 10 15 16 16 14 12 12 13 13 12 12 11 11 11 10 10 10 10 11 10 9 10 9 10 10 10 10 11 12 12
14 12 12 10 10 10 10 10 11 11 10 9 10 13 15 16 13 12 13 13 13 11 11 10 9 8 7 7 7 8 8 8 10 10 10 9 9 10 9 9 9 9 9
14 14 12 10 10 9 9 10 10 9 9 9 10 13 12 12 11 11 11 9 9 10 10 8 8 7 6 6 7 8 10 10 9 8 8 8 8 8 8 7 7 7 7
14 13 11 10 10 10 9 8 8 9 10 12 12 10 9 7 7 7 7 4 6 6 5 5 5 5 6 7 8 8 8 7 7 6 6 6 7 7 7 7 7 7 7
12 15 15 12 11 9 8 9 9 9 8 7 8 9 10 8 4 1 1 1 4 5 5 4 4 4 5 7 8 8 7 6 6 6 6 6 6 5 5 5 6 6 6
12 12 12 10 10 9 9 8 8 8 7 7 6 7 9 5 5 4 5 5 3 3 5 6 6 6 6 6 6 5 5 6 6 5 5 6 6 5 6 6 7 7 6
11 11 10 10 10 9 7 6 5 5 6 6 6 7 9 8 6 6 6 6 6 5 4 4 4 4 5 6 6 6 5 6 6 5 5 6 6 6 7 7 8 7 8
12 12 10 9 9 8 7 5 5 5 5 6 6 6 8 10 9 8 8 8 7 6 6 5 5 5 6 6 7 7 7 6 6 5 6 6 7 8 9 8 7 7 6
12 11 10 10 10 8 6 6 6 7 5 6 7 6 8 9 10 12 12 13 11 10 10 9 9 10 9 9 9 9 9 7 7 7 7 8 10 12 10 9 8 7 7
10 10 9 8 7 8 9 9 8 9 9 9 8 9 8 7 9 9 10 13 16 18 16 15 13 15 15 14 12 11 12 11 9 9 9 10 11 12 11 11 10 9 7
12 11 10 9 9 9 8 8 11 11 12 10 10 11 9 7 7 6 6 9 11 15 15 17 18 16 17 18 17 13 10 9 12 13 12 15 14 13 12 11 9 8 7
Wind_Direction
209 210 212 215 224 230 229 239 250 253 243 234 229 249 254 242 236 231 251 269 255 265 300 300 277 279 257 278 247 236 254 265 298 162 163 181 164 168 162 165 176 204 229
209 205 209 216 223 226 227 237 248 258 259 246 249 250 241 238 241 241 256 269 283 277 280 281 279 275 271 286 256 255 262 272 290 267 169 183 182 171 167 168 175 212 209
212 221 208 212 220 229 225 231 242 247 249 241 239 237 240 249 242 257 270 276 276 274 270 272 279 273 276 262 257 258 258 259 281 290 224 180 175 177 180 189 188 176 133
210 215 212 212 218 225 229 226 230 232 238 247 256 257 247 247 251 258 275 283 281 278 275 273 263 267 287 284 269 255 268 282 288 300 291 225 195 185 206 199 198 180 157
197 207 216 225 224 224 228 229 228 226 233 242 247 245 247 247 239 251 265 271 283 282 278 274 273 257 275 272 213 185 236 312 307 295 282 274 215 188 213 219 202 190 193
192 196 196 199 211 218 216 218 223 227 227 234 240 230 216 232 243 254 269 274 281 279 280 274 247 269 277 228 240 259 319 327 309 292 285 332 269 269 224 210 187 186 184
167 158 154 169 179 190 204 214 219 217 216 218 217 209 212 223 240 249 246 234 256 294 312 207 211 252 204 250 259 264 269 290 296 287 291 107 65 1 205 210 212 192 27
175 170 173 182 176 166 173 190 201 201 202 205 198 198 198 193 164 164 182 162 161 140 142 193 217 230 246 211 219 159 99 96 89 93 115 96 80 69 178 200 194 188 164
189 180 183 183 172 163 159 156 155 148 147 145 147 144 148 155 178 181 195 158 143 117 96 97 127 69 242 219 195 144 118 99 94 91 81 71 59 45 72 124 150 170 143
206 205 208 194 200 191 180 169 162 156 152 151 151 152 169 192 221 218 222 225 204 190 208 317 280 93 104 151 172 149 133 127 115 94 83 81 70 66 63 83 126 158 126
94 150 192 199 200 195 181 180 163 156 152 144 144 129 133 156 157 192 183 207 201 157 131 93 96 125 135 152 162 161 151 142 130 116 95 77 69 66 65 63 75 91 108
90 102 87 113 134 160 161 153 149 144 130 117 112 104 97 92 89 106 142 169 157 136 108 86 71 62 138 195 177 161 148 140 132 113 97 91 87 81 73 74 76 81 85
112 108 117 113 116 132 136 134 130 127 123 118 106 92 78 79 90 111 109 112 119 121 110 97 83 80 97 105 117 120 125 131 122 111 109 101 90 86 87 80 73 69 70
106 105 108 108 112 110 113 123 125 128 122 121 114 102 97 87 88 87 101 105 104 106 106 104 102 100 101 105 112 112 108 109 108 104 102 100 96 78 79 79 73 75 72
112 113 108 108 112 114 117 119 122 131 126 109 106 108 108 100 90 97 103 104 112 115 105 100 97 94 94 93 92 91 93 95 94 97 99 101 101 88 80 75 73 76 76
113 106 109 111 112 111 111 106 118 124 129 123 115 123 115 113 104 96 91 94 100 102 98 98 95 95 97 96 95 97 95 95 96 96 96 98 100 101 96 86 82 80 79
114 112 111 115 115 111 108 118 111 102 122 122 118 129 126 123 114 108 105 100 98 90 95 92 92 93 98 103 103 104 107 108 106 105 105 106 108 106 104 99 92 86 80
124 129 127 121 116 120 128 125 125 124 118 99 115 129 129 124 116 113 116 102 99 97 101 99 95 95 96 100 106 110 113 110 106 102 100 99 98 102 101 93 84 79 74
140 140 135 131 126 125 113 112 113 121 127 126 128 127 132 127 120 127 130 108 111 115 114 111 102 97 119 122 120 121 119 113 107 105 106 101 99 106 106 97 89 89 98
143 145 140 133 131 124 112 115 119 124 125 133 148 154 160 150 150 118 351 140 137 145 152 155 151 142 144 149 146 147 141 127 122 111 114 129 124 119 116 112 104 102 97
148 151 147 142 141 138 138 137 136 134 137 145 153 172 175 167 173 181 183 190 189 180 162 160 167 164 165 165 168 171 174 165 153 138 136 140 141 134 122 114 111 111 110
162 160 162 158 161 163 154 144 157 168 172 170 178 186 192 204 220 214 205 202 206 201 193 185 171 180 176 185 190 189 184 183 179 163 158 156 149 139 139 135 131 123 117
160 151 147 153 159 165 170 182 197 204 207 205 208 208 216 228 235 234 226 219 214 210 208 206 202 204 202 199 195 192 195 202 196 186 177 164 157 162 165 163 159 156 154
173 171 166 165 177 184 198 219 236 233 220 215 218 227 243 248 249 246 237 228 224 221 220 224 222 218 217 212 206 200 195 197 196 197 184 182 179 176 178 184 188 193 197
169 163 165 172 184 206 223 228 233 224 223 218 231 240 232 246 257 258 248 241 232 231 241 245 236 228 224 224 215 208 206 206 201 199 188 185 186 190 195 196 199 208 220
198 196 197 201 208 216 223 231 235 231 233 226 230 240 248 244 256 249 273 263 245 238 245 254 252 246 235 229 227 215 219 220 217 207 202 197 195 203 207 209 211 224 233